Date,TemperatureHighF,TemperatureAvgF,TemperatureLowF,DewpointHighF,DewpointAvgF,DewpointLowF,HumidityHigh,HumidityAvg,HumidityLow,PressureMaxIn,PressureMinIn,WindSpeedMaxMPH,WindSpeedAvgMPH,GustSpeedMaxMPH,PrecipitationSumIn
2012-1-1,41.8,35.7,31.4,39.7,34.2,30.0,100,94,91,30.02,29.48,19,2,19,0.09
2012-1-2,41.4,32.6,19.8,39.5,24.2,11.0,93,71,56,29.70,29.46,27,7,27,0.01
2012-1-3,19.8,11.9,3.1,11.3,0.9,-6.6,80,61,43,30.15,29.69,19,3,19,0.00
2012-1-4,19.8,9.4,0.9,13.1,3.4,-3.3,84,77,70,30.18,29.83,13,1,13,0.00
2012-1-5,25.1,20.3,12.1,22.0,15.7,8.7,89,82,70,29.90,29.76,16,1,16,0.00
2012-1-6,33.8,26.8,14.8,28.7,22.6,11.9,91,84,78,29.87,29.67,17,2,17,0.01
2012-1-7,45.9,36.5,29.1,38.5,32.1,25.9,92,84,69,29.87,29.61,19,2,19,0.00
2012-1-8,35.4,27.1,15.6,31.6,21.3,12.5,90,79,70,30.29,29.87,14,2,14,0.00
2012-1-9,31.4,24.6,15.5,23.5,19.0,12.5,90,80,62,30.29,29.85,16,2,16,0.00
2012-1-10,39.8,32.3,23.3,30.6,23.1,17.7,82,69,60,29.99,29.74,23,4,24,0.00
2012-1-11,25.8,20.2,16.7,23.2,15.8,12.2,91,83,78,30.12,29.98,8,1,8,0.00
2012-1-12,32.9,31.0,25.8,30.8,28.3,23.1,92,90,83,30.00,29.45,8,0,8,0.00
2012-1-13,34.6,30.4,23.7,33.0,27.3,19.2,94,88,76,29.51,29.03,34,5,34,0.09
2012-1-14,26.7,12.5,0.8,20.2,8.1,-3.0,88,82,70,30.12,29.51,25,2,25,0.00
2012-1-15,6.9,-2.8,-11.7,0.0,-7.3,-16.1,85,81,72,30.60,30.12,9,1,10,0.00
2012-1-16,24.3,8.3,-9.1,17.5,0.6,-13.3,86,71,56,30.62,30.03,23,5,23,0.00
2012-1-17,40.7,30.6,24.3,38.6,27.7,17.8,95,89,76,30.04,29.25,38,3,38,0.00
2012-1-18,41.4,21.7,8.1,38.7,10.8,-0.9,92,63,49,30.19,29.25,45,8,50,0.01
2012-1-19,25.4,11.7,-1.4,20.0,3.4,-5.3,87,71,36,30.23,29.87,24,3,24,0.00
2012-1-20,22.9,16.7,7.6,20.5,5.5,-3.6,91,62,37,30.31,29.87,20,3,20,0.00
2012-1-21,15.7,10.2,0.5,10.6,5.3,-3.2,86,80,69,30.40,30.18,7,1,7,0.00
2012-1-22,24.4,9.6,-1.2,17.8,4.5,-5.2,89,80,66,30.55,30.39,16,2,16,0.00
2012-1-23,44.0,33.3,24.3,42.3,29.8,18.1,100,87,77,30.39,29.74,23,5,23,0.24
2012-1-24,44.0,37.8,32.3,42.4,32.7,25.9,96,82,69,30.02,29.72,22,4,22,0.01
2012-1-25,32.9,30.3,26.5,27.7,24.0,22.0,87,77,68,30.23,30.01,12,1,12,0.00
2012-1-26,31.0,27.9,25.1,29.2,23.8,21.2,93,85,75,30.22,29.84,8,1,8,0.00
2012-1-27,41.2,35.4,31.0,39.9,32.5,27.2,95,89,70,29.84,29.24,35,4,35,0.54
2012-1-28,38.4,33.6,27.2,30.4,25.8,23.0,92,73,62,29.93,29.69,29,4,30,0.00
2012-1-29,34.9,29.4,25.3,27.3,22.4,19.0,91,76,55,29.97,29.78,29,6,29,0.09
2012-1-30,28.4,24.3,17.8,26.1,15.3,8.9,92,69,53,30.23,29.90,22,3,22,0.00
2012-1-31,39.1,28.8,21.1,32.6,24.0,14.7,90,82,72,30.22,29.87,14,1,14,0.05
2012-2-1,49.2,42.2,36.4,42.9,35.6,30.5,87,77,68,29.95,29.68,25,4,25,0.02
2012-2-2,36.4,24.7,18.7,30.9,20.7,15.0,92,84,79,30.31,29.94,14,2,14,0.00
2012-2-3,28.6,22.6,12.9,24.7,17.7,9.7,92,81,69,30.44,30.24,10,1,10,0.00
2012-2-4,28.5,22.9,11.5,25.3,17.9,8.5,91,81,64,30.28,30.18,16,2,16,0.00
2012-2-5,26.1,16.7,7.2,18.4,12.1,4.0,88,82,69,30.22,30.03,12,2,12,0.00
2012-2-6,47.9,36.4,19.1,28.3,24.7,16.1,92,64,38,30.03,29.78,25,5,27,0.00
2012-2-7,36.5,27.0,12.6,28.1,20.5,9.5,88,77,67,30.27,29.87,12,2,16,0.00
2012-2-8,30.9,19.3,7.5,18.2,12.3,4.2,88,75,53,30.30,30.02,10,1,12,0.00
2012-2-9,41.9,29.6,14.4,23.6,16.4,11.2,88,60,38,30.06,29.96,22,3,22,0.00
2012-2-10,39.1,32.2,23.6,23.5,19.1,13.7,72,59,47,30.03,29.85,22,3,22,0.00
2012-2-11,30.2,20.0,9.5,23.9,14.1,1.8,89,78,63,29.85,29.74,15,2,15,0.00
2012-2-12,14.8,10.2,5.3,3.8,-1.0,-3.8,73,60,48,29.87,29.75,22,4,22,0.00
2012-2-13,36.4,22.8,12.6,20.9,12.6,3.5,87,66,38,29.91,29.77,15,2,15,0.01
2012-2-14,38.6,30.8,20.7,27.1,20.6,15.1,84,67,45,30.04,29.91,16,2,16,0.00
2012-2-15,40.4,34.3,30.1,32.5,29.7,26.4,91,83,72,30.25,30.04,11,1,11,0.00
2012-2-16,40.4,33.9,30.9,32.4,28.8,26.6,94,82,64,30.25,29.89,14,2,14,0.01
2012-2-17,40.7,36.3,31.4,33.1,27.7,21.9,93,72,52,29.92,29.84,20,4,20,0.03
2012-2-18,39.2,32.2,26.9,29.5,23.2,19.4,92,71,46,30.01,29.81,21,2,21,0.00
2012-2-19,32.7,24.5,16.8,25.9,19.1,14.1,92,80,63,30.10,30.01,13,1,13,0.02
2012-2-20,29.6,21.5,14.7,18.9,15.0,10.9,88,76,59,30.32,30.07,11,1,11,0.00
2012-2-21,38.9,28.9,14.4,29.7,19.2,11.2,89,69,46,30.34,29.75,21,4,21,0.00
2012-2-22,45.7,38.0,32.1,34.4,31.2,27.0,94,78,50,29.75,29.38,22,5,22,0.13
2012-2-23,41.4,34.1,27.2,35.6,29.7,23.6,95,84,58,29.75,29.33,17,2,17,0.03
2012-2-24,33.4,30.5,27.3,30.9,27.5,23.6,100,89,76,29.75,29.17,10,0,10,0.00
2012-2-25,32.9,28.7,19.9,31.4,20.8,9.4,95,72,59,29.89,29.11,40,6,40,0.02
2012-2-26,27.1,20.0,11.2,11.0,6.9,2.1,76,57,42,30.43,29.89,17,2,17,0.00
2012-2-27,41.9,28.4,12.3,30.5,18.5,7.2,89,67,48,30.42,29.99,25,3,25,0.08
2012-2-28,35.9,26.7,16.6,29.3,19.0,12.6,91,73,55,30.39,30.08,31,3,31,0.01
2012-2-29,29.9,25.1,17.0,25.5,19.5,13.3,92,79,66,30.38,29.88,5,0,6,0.00
2012-3-1,29.9,28.1,25.9,27.6,25.4,21.9,93,89,84,29.96,29.76,14,2,14,0.01
2012-3-2,35.2,30.6,25.7,30.3,26.7,21.9,92,85,81,30.03,29.73,25,4,25,0.05
2012-3-3,49.6,37.6,30.1,40.0,29.6,22.2,95,75,36,29.73,29.29,36,7,36,0.19
2012-3-4,36.2,29.7,16.8,27.2,22.8,13.3,92,76,62,29.66,29.51,29,4,29,0.02
2012-3-5,18.6,12.8,3.1,13.7,7.8,-0.6,92,80,64,30.37,29.66,11,2,11,0.01
2012-3-6,30.9,17.2,-1.0,14.4,5.9,-4.9,85,63,40,30.59,30.37,14,3,14,0.00
2012-3-7,56.8,41.2,25.4,31.7,24.1,13.0,68,51,32,30.45,30.09,21,4,21,0.01
2012-3-8,59.6,49.6,38.0,49.7,40.2,30.0,88,71,54,30.10,29.57,43,8,43,0.22
2012-3-9,38.0,31.9,26.5,30.3,22.3,16.1,91,68,52,30.12,29.74,21,4,22,0.00
2012-3-10,29.0,25.8,22.6,23.9,21.2,19.0,92,83,70,30.50,30.12,13,2,13,0.01
2012-3-11,58.7,40.5,25.2,34.5,25.5,17.4,73,57,38,30.40,30.16,23,5,23,0.01
2012-3-12,59.9,46.3,33.3,38.5,33.4,27.5,83,62,43,30.23,30.01,11,2,11,0.00
2012-3-13,65.9,53.4,44.4,50.3,40.7,34.0,77,62,47,30.01,29.81,25,4,25,0.00
2012-3-14,48.9,42.5,37.6,41.3,35.9,33.9,89,78,62,30.23,29.90,16,2,16,0.00
2012-3-15,50.9,40.4,33.5,42.1,36.3,32.0,95,86,66,30.31,30.16,13,2,13,0.04
2012-3-16,48.7,43.8,40.1,44.4,40.7,37.8,95,89,82,30.21,30.01,16,3,16,0.06
2012-3-17,57.1,45.8,39.5,44.0,40.4,37.8,96,82,59,30.32,30.20,12,2,12,0.00
2012-3-18,71.1,54.6,36.5,54.1,44.9,34.0,93,72,49,30.23,30.05,11,2,11,0.00
2012-3-19,72.8,61.2,51.5,56.1,50.7,45.5,86,69,54,30.15,30.06,13,2,13,0.00
2012-3-20,75.9,60.7,47.1,58.4,51.4,44.7,94,74,47,30.23,30.13,13,2,13,0.00
2012-3-21,78.0,61.1,46.5,59.0,51.2,44.0,94,72,45,30.29,30.13,19,2,19,0.00
2012-3-22,77.0,60.8,46.4,60.0,52.2,43.9,95,75,50,30.17,30.00,11,2,11,0.00
2012-3-23,63.3,56.7,49.9,53.1,38.2,19.8,80,52,30,30.17,30.05,18,3,18,0.00
2012-3-24,50.3,43.0,39.1,32.4,23.2,13.0,73,47,29,30.15,29.97,16,2,16,0.00
2012-3-25,50.4,43.6,40.6,44.7,39.6,31.6,92,86,68,29.97,29.69,14,2,16,0.25
2012-3-26,42.3,33.0,25.2,40.6,19.5,3.1,94,60,38,30.13,29.63,33,9,33,0.02
2012-3-27,36.2,28.0,19.4,16.0,7.9,-0.1,61,43,26,30.31,30.11,21,4,21,0.00
2012-3-28,49.7,39.8,30.3,41.0,27.7,10.2,88,63,41,30.11,29.50,21,3,21,0.03
2012-3-29,43.0,36.1,32.7,38.5,30.9,25.3,91,81,69,29.95,29.56,17,3,17,0.00
2012-3-30,41.9,34.2,25.1,26.0,18.0,11.2,73,52,37,30.09,29.95,23,4,23,0.00
2012-3-31,46.1,35.9,27.9,31.9,24.5,19.5,81,64,45,30.04,29.87,13,2,14,0.00
2012-4-1,42.8,33.7,25.7,34.9,27.5,20.7,90,78,61,29.88,29.64,10,2,10,0.02
2012-4-2,49.5,39.4,31.8,35.2,23.7,10.9,90,59,23,29.85,29.65,29,6,29,0.00
2012-4-3,47.7,39.1,26.8,26.1,17.0,7.5,56,41,29,29.92,29.72,17,3,18,0.00
2012-4-4,54.2,42.6,34.8,36.3,26.7,17.8,84,55,34,29.73,29.51,30,6,30,0.02
2012-4-5,41.7,36.4,32.9,32.4,25.8,22.0,92,66,51,29.90,29.67,23,6,23,0.02
2012-4-6,46.3,38.3,33.2,27.8,21.8,15.4,63,52,34,30.02,29.90,20,4,21,0.00
2012-4-7,47.2,40.1,33.5,26.2,20.3,13.2,59,45,35,30.06,29.99,18,4,18,0.00
2012-4-8,55.2,44.4,37.7,32.2,26.9,23.6,61,51,37,30.00,29.49,26,4,26,0.00
2012-4-9,45.7,42.6,39.6,36.2,34.7,32.6,83,74,61,29.53,29.40,25,7,30,0.00
2012-4-10,48.9,42.1,38.7,37.6,34.3,31.7,83,74,60,29.72,29.49,26,7,28,0.00
2012-4-11,49.5,41.4,35.2,40.0,34.3,30.8,92,76,60,29.93,29.71,17,3,17,0.02
2012-4-12,52.2,43.6,31.9,40.0,32.9,26.1,83,67,45,30.09,29.93,18,4,18,0.02
2012-4-13,63.3,46.4,32.6,36.1,29.5,22.8,81,55,23,30.15,30.01,19,3,19,0.00
2012-4-14,67.3,55.2,42.5,36.3,29.7,22.9,54,39,20,30.09,29.90,20,4,20,0.00
2012-4-15,68.5,60.6,51.2,55.8,48.1,32.8,80,64,43,29.91,29.82,23,4,23,0.00
2012-4-16,86.1,70.6,56.0,61.5,55.5,48.9,95,64,32,29.91,29.70,27,4,27,0.00
2012-4-17,75.1,58.9,43.4,59.7,38.4,26.7,67,48,27,30.19,29.76,29,7,29,0.00
2012-4-18,50.9,40.2,31.9,33.9,27.0,22.8,78,60,37,30.30,30.09,15,2,15,0.00
2012-4-19,70.3,49.5,29.4,43.8,35.7,25.3,92,63,35,30.09,29.86,21,3,23,0.00
2012-4-20,73.7,57.1,42.8,52.7,45.4,38.2,92,67,35,29.92,29.71,26,3,26,0.00
2012-4-21,63.2,50.4,37.9,53.5,44.8,35.5,93,82,69,29.87,29.66,17,4,17,0.48
2012-4-22,38.4,36.4,33.8,35.5,33.2,30.6,92,88,84,29.94,29.75,23,6,23,0.43
2012-4-23,53.3,42.7,34.5,47.9,39.8,32.4,94,90,76,29.75,29.19,25,4,25,1.31
2012-4-24,50.4,43.2,37.3,41.5,36.1,32.4,90,76,55,29.57,29.21,29,7,29,0.18
2012-4-25,51.1,41.7,35.3,39.1,33.6,30.4,89,74,50,29.86,29.57,21,4,21,0.05
2012-4-26,54.0,43.6,33.8,43.1,36.7,29.5,94,78,47,29.87,29.51,22,2,22,0.28
2012-4-27,44.8,38.6,32.8,43.2,29.6,22.0,94,71,56,30.06,29.52,35,9,35,0.01
2012-4-28,50.2,38.7,29.0,26.5,19.7,14.1,68,48,27,30.15,30.06,20,4,20,0.00
2012-4-29,50.3,38.4,27.6,23.9,18.8,12.5,76,49,23,30.25,30.08,29,4,29,0.00
2012-4-30,54.5,43.4,29.3,39.3,25.4,14.9,77,50,33,30.34,30.08,11,2,11,0.00
2012-5-1,50.3,46.9,44.2,48.4,44.1,37.7,94,90,70,30.09,29.97,13,1,13,0.31
2012-5-2,64.5,52.5,45.7,54.3,48.5,44.3,96,87,67,30.12,30.04,18,2,18,0.07
2012-5-3,57.5,52.9,48.8,54.3,50.4,46.8,94,91,88,30.09,29.93,13,2,13,0.50
2012-5-4,68.0,59.0,53.6,62.5,56.4,52.1,96,91,81,29.98,29.82,12,1,12,0.40
2012-5-5,58.3,49.9,42.9,56.3,42.3,33.0,94,76,47,30.11,29.89,18,3,18,0.00
2012-5-6,61.6,48.8,33.3,44.9,34.4,28.1,91,60,33,30.13,30.06,16,3,18,0.00
2012-5-7,68.1,53.6,33.6,51.2,33.2,18.7,85,51,17,30.12,29.92,13,2,14,0.00
2012-5-8,60.5,52.9,48.1,52.8,49.8,45.3,94,90,71,29.93,29.73,20,3,22,0.26
2012-5-9,66.6,58.0,52.6,60.7,55.3,49.6,97,91,78,29.75,29.53,18,2,18,0.21
2012-5-10,58.1,51.0,46.4,51.2,44.9,38.1,93,80,57,29.65,29.42,26,3,26,0.02
2012-5-11,64.0,52.5,40.7,43.9,35.3,29.6,77,55,29,30.01,29.64,27,5,27,0.00
2012-5-12,78.3,60.6,39.6,49.6,40.3,31.1,78,50,28,30.10,30.00,20,3,20,0.00
2012-5-13,70.5,62.6,52.2,57.7,50.4,42.8,88,65,47,30.09,30.04,15,2,15,0.00
2012-5-14,72.8,60.0,50.8,61.2,53.9,47.1,92,81,59,30.11,30.00,15,2,15,0.00
2012-5-15,62.2,59.7,57.0,61.0,58.2,55.3,96,95,89,30.04,29.89,10,1,10,0.84
2012-5-16,76.2,61.2,51.9,66.4,57.7,44.1,97,89,60,29.89,29.67,27,2,27,0.33
2012-5-17,65.8,52.7,40.5,44.5,39.6,34.9,90,64,35,30.15,29.87,17,2,17,0.00
2012-5-18,69.8,54.6,36.4,49.0,42.4,33.5,92,67,38,30.23,30.10,15,2,15,0.00
2012-5-19,78.1,61.8,43.7,57.1,48.7,40.7,92,66,36,30.18,30.08,10,2,10,0.00
2012-5-20,88.1,69.8,51.6,63.1,55.7,48.4,90,65,34,30.21,30.12,11,2,12,0.00
2012-5-21,77.8,67.3,53.3,61.4,56.4,49.8,91,70,43,30.16,29.96,22,2,22,0.00
2012-5-22,73.5,66.3,61.0,65.6,62.1,58.8,94,87,72,29.96,29.77,10,1,10,0.63
2012-5-23,70.9,62.5,56.4,62.4,58.5,54.1,96,87,72,30.01,29.82,13,1,13,0.01
2012-5-24,80.4,66.3,53.0,67.0,60.5,51.3,96,83,60,30.14,30.00,22,3,22,0.00
2012-5-25,76.4,69.3,62.7,67.8,63.3,58.5,88,81,73,30.12,29.95,18,3,18,0.00
2012-5-26,79.1,69.4,56.9,64.8,58.8,51.7,93,71,47,30.12,29.98,11,1,11,0.00
2012-5-27,75.2,63.3,49.6,56.2,50.8,45.2,91,66,46,30.18,29.99,11,1,11,0.00
2012-5-28,79.7,67.7,52.1,66.4,56.2,45.2,87,68,54,29.99,29.76,10,1,11,0.00
2012-5-29,87.5,69.2,64.4,75.5,65.9,60.9,95,90,62,29.78,29.59,28,2,28,1.70
2012-5-30,80.5,68.8,58.4,63.2,56.7,47.9,94,68,39,29.70,29.60,20,2,20,0.00
2012-5-31,70.1,60.7,50.5,59.3,50.9,43.3,91,71,55,29.96,29.69,11,1,13,0.00
2012-6-1,68.9,58.1,43.1,54.9,48.5,40.1,92,72,51,30.05,29.87,16,1,16,0.02
2012-6-2,58.5,53.6,49.2,53.5,51.1,46.6,94,91,76,29.87,29.72,12,1,12,0.77
2012-6-3,65.9,56.4,48.5,59.7,53.4,46.9,96,90,74,29.73,29.60,10,0,10,0.31
2012-6-4,56.7,52.2,49.9,51.3,49.1,47.2,94,89,78,29.85,29.64,19,2,19,0.29
2012-6-5,65.3,56.7,49.6,52.7,48.5,46.1,90,75,57,29.91,29.82,23,4,23,0.00
2012-6-6,68.8,59.0,50.5,57.3,51.2,47.4,92,77,52,29.95,29.88,10,1,10,0.03
2012-6-7,71.6,60.6,51.0,58.3,52.8,48.0,93,77,49,29.95,29.86,12,1,12,0.02
2012-6-8,76.7,62.6,52.4,63.3,54.2,48.6,91,76,44,29.87,29.68,26,1,26,0.14
2012-6-9,74.2,61.8,47.4,60.9,54.0,45.0,94,77,53,29.94,29.77,11,1,11,0.00
2012-6-10,78.7,66.5,52.0,63.3,57.1,49.5,93,74,50,30.10,29.94,9,2,9,0.00
2012-6-11,84.0,71.3,58.3,71.3,63.1,55.8,95,76,58,30.14,30.04,16,3,16,0.00
2012-6-12,74.2,65.0,58.5,64.3,59.3,53.7,94,82,67,30.06,29.82,20,2,20,0.29
2012-6-13,74.5,65.3,54.9,63.1,58.0,49.5,96,79,55,30.12,29.79,15,2,20,0.09
2012-6-14,74.3,63.1,51.1,53.0,48.0,45.1,88,60,39,30.27,30.12,15,3,15,0.00
2012-6-15,78.2,63.4,46.5,59.4,52.1,43.4,91,69,39,30.32,30.22,11,2,11,0.00
2012-6-16,80.3,66.7,51.2,65.0,57.1,48.6,93,73,45,30.29,30.12,11,2,11,0.00
2012-6-17,80.3,70.7,58.3,67.5,60.2,54.0,89,71,49,30.14,29.94,17,3,17,0.00
2012-6-18,77.1,66.3,56.1,62.2,57.8,53.2,92,75,56,30.03,29.96,20,3,20,0.00
2012-6-19,80.8,70.0,60.1,69.6,62.9,55.9,91,79,66,30.03,29.92,19,2,19,0.00
2012-6-20,92.6,78.7,66.1,78.0,70.0,63.8,95,76,47,29.98,29.84,14,1,14,0.00
2012-6-21,94.5,81.9,67.4,75.4,67.5,62.8,89,63,42,29.85,29.67,15,2,15,0.00
2012-6-22,83.7,74.3,65.4,71.4,62.7,56.2,88,69,42,29.78,29.68,12,2,12,0.00
2012-6-23,75.0,66.3,58.9,65.2,60.1,51.8,93,81,67,29.94,29.78,14,1,14,0.09
2012-6-24,81.5,66.5,53.1,63.2,55.8,48.1,92,71,38,29.96,29.81,13,1,13,0.19
2012-6-25,69.7,61.1,50.4,63.8,57.5,47.2,95,88,72,29.83,29.64,16,1,16,0.86
2012-6-26,62.5,56.0,47.2,59.7,52.2,44.7,94,88,74,29.69,29.60,17,1,19,0.18
2012-6-27,71.7,63.5,56.1,58.7,54.9,52.2,92,74,60,29.73,29.55,24,5,24,0.04
2012-6-28,81.6,68.5,54.8,65.9,59.4,51.7,93,75,49,29.74,29.63,11,1,11,0.00
2012-6-29,89.2,74.2,59.1,74.6,61.3,53.0,93,68,33,29.64,29.49,22,3,25,0.05
2012-6-30,87.4,76.1,63.1,63.7,57.9,53.4,75,55,35,29.64,29.56,24,3,24,0.00
2012-7-1,80.2,72.3,65.1,68.5,62.1,57.4,80,70,56,29.83,29.64,6,1,10,0.02
2012-7-2,81.6,69.1,59.8,68.2,59.9,52.7,91,74,38,29.89,29.81,17,1,17,0.29
2012-7-3,81.3,68.3,54.3,65.4,59.8,52.2,95,76,47,29.92,29.75,10,1,10,0.01
2012-7-4,89.4,73.5,62.7,74.3,65.8,60.3,95,79,44,29.76,29.62,24,2,24,0.11
2012-7-5,75.8,68.6,61.1,66.0,61.6,57.4,92,79,64,29.88,29.70,14,2,15,0.00
2012-7-6,84.4,71.8,56.6,71.4,64.6,54.6,95,79,61,29.91,29.77,13,2,13,0.01
2012-7-7,83.3,74.3,68.9,69.8,65.8,60.3,89,75,53,29.80,29.73,14,1,14,0.00
2012-7-8,79.7,70.6,57.4,64.2,57.3,51.3,86,64,42,29.88,29.77,21,2,21,0.01
2012-7-9,76.0,63.7,50.5,58.7,50.8,46.9,92,66,38,29.98,29.87,21,2,21,0.00
2012-7-10,80.0,64.7,51.0,61.2,53.5,44.5,87,68,45,30.06,29.96,9,1,9,0.00
2012-7-11,84.3,69.1,53.4,64.7,56.7,50.5,92,68,38,30.16,30.06,10,1,10,0.00
2012-7-12,90.5,72.0,55.3,68.3,58.1,50.9,87,65,30,30.14,30.03,15,2,15,0.00
2012-7-13,92.7,77.9,59.5,68.5,59.1,53.2,84,56,28,30.14,30.04,12,2,15,0.00
2012-7-14,89.2,75.2,62.9,72.1,63.4,54.4,84,68,43,30.12,30.01,10,1,10,0.00
2012-7-15,87.2,74.7,64.1,73.4,67.5,61.4,94,79,50,30.05,29.84,15,1,15,0.08
2012-7-16,85.8,74.2,63.8,73.9,67.9,62.0,96,82,64,29.84,29.74,5,1,9,0.00
2012-7-17,95.3,76.1,68.3,73.8,68.1,64.3,95,78,44,29.76,29.53,15,2,26,1.12
2012-7-18,80.3,71.0,56.5,70.2,64.1,52.8,96,80,59,29.94,29.69,12,1,12,0.01
2012-7-19,73.2,63.4,52.1,58.8,53.7,49.2,94,72,55,30.04,29.93,13,1,13,0.00
2012-7-20,75.2,63.1,49.2,57.9,52.5,46.7,94,71,44,30.08,30.01,10,1,10,0.00
2012-7-21,82.3,66.3,51.4,64.6,56.4,48.6,93,73,47,30.08,29.96,12,2,12,0.00
2012-7-22,88.7,75.0,60.4,69.3,62.4,55.4,87,66,47,30.06,29.95,14,1,14,0.00
2012-7-23,89.3,74.1,63.7,74.0,66.8,60.1,94,79,57,29.97,29.65,19,2,19,0.80
2012-7-24,80.3,70.4,61.7,74.2,63.1,52.2,96,79,55,29.75,29.55,24,3,24,0.20
2012-7-25,76.2,66.8,57.2,61.3,56.2,51.4,85,70,54,29.89,29.73,16,2,16,0.00
2012-7-26,67.6,64.5,61.0,65.7,62.1,56.8,95,92,86,29.75,29.58,5,0,5,0.24
2012-7-27,79.2,68.9,62.3,67.6,63.4,59.3,95,84,63,29.91,29.61,10,1,10,0.01
2012-7-28,78.0,69.5,61.0,69.3,61.1,57.0,94,76,54,29.97,29.90,12,1,12,0.00
2012-7-29,81.3,71.3,61.7,66.3,62.3,57.8,91,74,50,30.01,29.93,9,1,9,0.00
2012-7-30,84.2,71.9,61.4,70.3,64.6,59.1,94,79,55,30.06,29.95,12,1,14,0.00
2012-7-31,86.0,74.1,64.0,71.8,64.6,60.0,94,74,46,30.01,29.83,17,2,17,0.00
2012-8-1,81.5,70.4,64.1,70.3,64.9,60.8,93,84,63,29.84,29.75,14,1,17,0.51
2012-8-2,85.5,74.0,61.2,72.3,66.2,59.5,96,78,53,29.85,29.78,14,1,14,0.01
2012-8-3,88.7,75.9,64.0,73.7,66.4,60.7,89,74,46,30.08,29.82,8,1,8,0.00
2012-8-4,93.0,75.3,62.3,76.7,66.7,60.0,93,76,50,30.15,30.06,18,2,18,0.00
2012-8-5,85.4,76.2,68.2,76.0,70.7,65.8,93,83,71,30.09,29.77,19,3,19,0.55
2012-8-6,76.9,67.7,57.3,66.1,59.8,54.1,94,77,52,29.98,29.85,13,1,13,0.00
2012-8-7,84.5,67.8,53.5,66.4,58.8,51.2,95,76,46,29.99,29.87,12,2,13,0.01
2012-8-8,84.2,70.3,57.0,68.1,61.2,53.5,92,75,51,29.97,29.88,11,1,11,0.00
2012-8-9,82.5,69.5,62.0,72.2,65.9,59.5,95,89,69,29.93,29.83,11,1,11,0.81
2012-8-10,73.8,69.4,65.5,71.0,67.4,64.0,96,93,87,29.85,29.77,9,0,9,0.35
2012-8-11,80.8,69.4,62.6,73.6,66.7,61.2,96,91,74,29.85,29.77,12,1,12,1.20
2012-8-12,83.7,71.8,63.9,66.7,63.4,59.6,96,77,51,29.88,29.80,15,2,16,0.01
2012-8-13,78.7,69.7,61.1,68.1,63.4,57.9,93,81,64,29.92,29.86,11,1,11,0.01
2012-8-14,81.2,70.7,59.6,69.9,63.6,57.6,94,79,59,29.93,29.84,10,1,10,0.00
2012-8-15,78.3,69.2,62.4,69.9,64.8,60.3,96,86,70,29.88,29.80,8,0,8,0.28
2012-8-16,77.7,68.3,58.9,68.4,62.1,56.5,95,81,60,29.89,29.80,11,1,11,0.05
2012-8-17,79.0,66.6,57.8,70.0,60.6,54.6,93,82,67,29.83,29.70,11,1,17,0.00
2012-8-18,74.5,62.9,51.9,61.1,55.1,49.1,93,77,51,29.94,29.80,10,1,10,0.01
2012-8-19,75.3,60.6,47.3,58.7,52.6,45.4,94,77,49,29.98,29.86,10,2,10,0.00
2012-8-20,77.3,63.5,50.9,65.3,56.5,48.7,95,79,57,29.90,29.81,14,1,14,0.00
2012-8-21,75.9,64.9,54.2,60.9,55.3,50.8,92,73,47,30.06,29.87,9,1,9,0.00
2012-8-22,82.7,65.0,49.5,63.0,54.4,46.7,92,71,39,30.12,30.03,14,1,14,0.00
2012-8-23,84.8,69.4,54.2,65.9,58.8,51.0,92,71,43,30.11,30.04,15,1,15,0.00
2012-8-24,82.1,68.3,56.5,69.9,61.3,54.2,94,80,54,30.18,30.10,8,1,8,0.00
2012-8-25,87.9,71.6,58.2,72.7,62.9,55.8,95,76,47,30.25,30.18,11,2,12,0.01
2012-8-26,85.8,71.3,59.4,70.2,62.6,57.4,95,76,48,30.29,30.14,13,1,13,0.00
2012-8-27,78.7,70.2,59.1,68.8,63.6,56.1,93,80,64,30.14,29.84,18,2,18,0.19
2012-8-28,78.5,69.2,58.7,71.1,61.1,48.3,96,77,50,29.93,29.76,20,3,21,0.02
2012-8-29,72.8,60.7,46.5,57.4,49.5,42.5,87,68,49,29.99,29.91,11,1,11,0.00
2012-8-30,82.5,66.4,49.1,63.4,54.7,45.3,91,68,49,30.00,29.87,21,3,21,0.00
2012-8-31,87.2,73.7,63.2,69.2,61.2,51.7,82,65,52,29.92,29.72,19,2,19,0.00
2012-9-1,76.1,67.6,58.4,63.5,57.2,50.9,90,70,51,30.08,29.84,14,2,14,0.00
2012-9-2,76.8,64.0,53.0,59.7,52.8,49.4,90,69,43,30.11,30.04,12,1,12,0.00
2012-9-3,83.2,66.0,49.4,64.4,55.0,46.3,92,70,45,30.15,30.03,19,3,19,0.00
2012-9-4,73.5,67.3,62.0,66.6,62.1,54.7,94,84,67,30.05,29.71,15,2,15,0.47
2012-9-5,76.0,67.9,61.4,68.9,63.4,59.1,95,86,72,29.85,29.63,18,2,18,1.25
2012-9-6,80.5,67.8,59.3,71.8,63.6,57.6,96,87,69,29.86,29.75,12,1,12,0.00
2012-9-7,83.0,68.4,56.8,68.8,61.0,54.8,96,79,46,29.92,29.78,15,1,15,0.01
2012-9-8,80.5,67.9,58.8,69.5,62.4,54.3,90,83,66,29.78,29.39,32,4,32,0.33
2012-9-9,68.7,57.3,45.5,57.2,51.1,43.3,95,81,62,29.91,29.67,10,1,10,0.00
2012-9-10,62.9,52.7,45.8,50.7,44.7,42.1,94,76,49,30.12,29.91,22,3,22,0.00
2012-9-11,66.8,53.7,41.8,53.6,46.5,38.5,92,78,57,30.25,30.11,10,1,10,0.00
2012-9-12,77.2,59.9,45.5,62.9,53.3,43.6,96,80,54,30.31,30.22,13,2,13,0.01
2012-9-13,78.7,63.9,50.4,65.9,57.7,48.5,95,81,60,30.31,30.19,12,1,12,0.00
2012-9-14,80.9,67.1,54.9,69.0,59.5,52.5,95,78,57,30.20,29.97,14,2,14,0.00
2012-9-15,66.8,58.6,50.1,55.2,49.1,45.0,90,72,50,30.08,29.97,20,3,20,0.03
2012-9-16,62.3,51.2,40.5,47.0,43.1,37.8,93,76,50,30.11,30.00,11,1,11,0.00
2012-9-17,74.7,59.2,40.6,61.9,51.5,38.2,95,77,61,30.05,29.94,17,2,17,0.00
2012-9-18,67.5,61.8,54.1,66.0,58.3,50.2,96,89,68,29.95,29.46,25,3,25,1.59
2012-9-19,64.9,54.5,40.3,60.8,44.6,37.6,94,71,40,30.20,29.57,26,2,26,0.00
2012-9-20,66.8,50.5,36.8,50.4,43.3,34.7,95,78,50,30.23,30.07,21,2,21,0.01
2012-9-21,72.7,60.0,51.0,60.4,54.1,47.8,92,82,61,30.08,29.93,15,2,16,0.00
2012-9-22,65.8,58.0,51.3,59.3,55.1,49.3,95,90,78,29.96,29.72,18,1,18,0.11
2012-9-23,62.9,53.3,45.7,53.2,45.0,40.9,93,75,47,30.06,29.78,22,2,22,0.01
2012-9-24,62.6,49.6,42.1,48.1,42.1,38.2,91,77,47,30.10,30.00,17,1,17,0.00
2012-9-25,70.1,55.0,39.2,51.2,44.7,36.0,91,70,47,30.04,29.99,18,3,18,0.00
2012-9-26,64.1,57.4,52.1,59.2,53.8,46.2,93,88,75,30.03,29.93,13,1,13,0.46
2012-9-27,58.6,50.4,40.2,52.0,44.2,37.6,93,80,61,30.24,30.02,15,2,15,0.07
2012-9-28,52.1,46.5,38.5,50.1,44.6,36.4,95,93,91,30.23,30.01,6,1,6,0.13
2012-9-29,54.8,52.0,50.3,52.0,49.7,48.3,95,92,87,30.02,29.90,13,2,13,0.03
2012-9-30,53.6,51.4,50.0,51.9,49.6,48.0,95,93,91,29.91,29.61,7,0,7,0.23
2012-10-1,59.1,53.8,49.4,54.8,51.4,47.8,95,91,84,29.89,29.55,13,1,13,0.08
2012-10-2,61.7,55.4,47.6,58.0,52.9,45.9,96,91,83,30.03,29.89,6,0,6,0.00
2012-10-3,61.9,58.6,53.7,60.7,57.2,51.7,98,95,93,30.10,30.01,4,0,4,0.18
2012-10-4,67.1,61.8,52.6,65.9,60.5,50.3,97,95,90,30.11,29.98,11,0,11,0.02
2012-10-5,71.3,60.0,49.4,63.6,56.2,47.8,96,88,72,29.99,29.83,12,1,12,0.01
2012-10-6,61.6,55.0,45.1,59.5,51.1,38.2,95,87,68,29.91,29.66,19,1,19,0.02
2012-10-7,56.0,44.8,38.6,44.0,39.1,35.6,91,81,50,30.06,29.91,12,1,13,0.12
2012-10-8,54.0,44.6,36.4,43.9,39.6,33.8,94,83,62,30.28,30.06,9,0,9,0.04
2012-10-9,56.1,45.4,33.7,47.7,40.7,31.9,95,84,67,30.28,30.07,11,2,11,0.00
2012-10-10,55.5,49.8,41.2,53.5,47.0,38.1,93,90,78,30.07,29.68,18,1,18,0.16
2012-10-11,53.1,43.7,37.3,38.1,35.2,31.1,90,73,45,30.06,29.78,20,2,22,0.00
2012-10-12,46.1,40.7,28.9,40.6,30.7,22.9,87,68,50,30.38,29.92,25,4,25,0.02
2012-10-13,52.3,38.8,25.3,35.3,28.1,22.1,89,68,36,30.44,30.20,13,1,13,0.02
2012-10-14,54.7,45.7,38.7,52.5,43.3,34.8,98,91,81,30.20,29.80,17,2,17,0.25
2012-10-15,67.9,57.5,48.8,59.3,51.8,42.8,91,82,71,29.80,29.53,22,3,22,0.00
2012-10-16,51.9,44.3,31.6,44.0,35.2,28.0,87,71,54,29.89,29.57,21,3,21,0.00
2012-10-17,54.1,41.5,29.4,42.0,35.5,27.1,93,80,60,29.98,29.88,9,1,9,0.01
2012-10-18,66.2,51.7,38.1,47.9,41.0,34.6,91,69,43,30.00,29.91,22,2,22,0.00
2012-10-19,56.6,53.7,50.3,55.2,50.9,43.7,96,90,78,29.98,29.65,7,1,7,1.97
2012-10-20,68.5,56.8,43.7,57.5,51.2,38.4,96,83,54,29.69,29.56,14,2,14,0.10
2012-10-21,52.4,48.8,43.9,46.5,42.7,39.2,88,80,67,29.89,29.68,24,2,24,0.00
2012-10-22,63.5,53.3,44.9,44.5,41.5,39.0,81,65,48,30.01,29.88,32,4,32,0.00
2012-10-23,52.1,43.8,37.4,46.0,40.2,34.7,94,87,77,30.16,30.01,10,1,10,0.00
2012-10-24,51.9,42.6,32.5,43.4,37.5,29.8,94,82,65,30.21,30.14,8,1,8,0.00
2012-10-25,60.3,52.2,41.4,52.4,46.6,37.9,90,82,66,30.22,30.14,18,3,18,0.00
2012-10-26,62.5,55.1,46.8,54.9,51.2,44.6,93,87,75,30.16,30.07,17,3,17,0.00
2012-10-27,65.3,53.8,43.6,57.4,50.2,42.0,96,88,74,30.10,29.95,8,1,8,0.01
2012-10-28,55.4,51.8,46.9,53.1,49.4,44.6,95,92,89,30.00,29.84,9,1,9,0.00
2012-10-29,59.5,53.3,47.2,55.1,48.9,45.0,93,85,73,29.84,29.26,34,8,34,0.09
2012-10-30,64.9,58.7,54.2,56.6,53.5,50.1,94,83,64,29.48,29.28,29,4,29,0.31
2012-10-31,54.1,47.3,40.7,51.8,43.6,36.7,95,87,74,29.48,29.38,19,1,19,0.06
2012-11-1,45.7,42.9,41.1,42.4,39.7,37.6,92,88,83,29.49,29.43,13,1,13,0.01
2012-11-2,44.3,41.6,38.7,38.9,35.8,33.5,90,80,68,29.65,29.48,19,2,19,0.01
2012-11-3,46.0,40.1,37.6,37.0,34.1,30.8,93,80,60,29.87,29.65,15,1,15,0.00
2012-11-4,41.8,36.5,29.9,33.4,29.3,23.6,91,75,64,30.00,29.86,14,2,14,0.00
2012-11-5,37.1,32.2,27.0,23.9,20.1,16.1,70,61,47,30.15,29.99,20,4,20,0.00
2012-11-6,36.1,27.1,20.2,21.3,18.2,15.5,85,70,51,30.23,30.14,12,2,12,0.00
2012-11-7,34.3,27.7,18.2,25.6,20.3,15.0,90,75,58,30.22,29.98,19,4,19,0.00
2012-11-8,36.2,33.0,29.2,28.5,24.8,19.9,77,71,63,29.99,29.91,29,8,29,0.00
2012-11-9,44.8,34.8,22.8,33.3,27.3,19.2,89,75,54,30.12,29.94,10,1,10,0.00
2012-11-10,41.6,36.1,30.5,34.8,30.0,25.4,91,79,66,30.41,30.11,13,1,13,0.00
2012-11-11,62.1,49.5,35.4,45.0,39.7,30.6,84,70,52,30.38,30.28,15,4,21,0.00
2012-11-12,68.8,56.0,43.8,53.5,46.3,39.6,89,71,47,30.33,29.96,38,6,38,0.00
2012-11-13,61.1,39.9,27.0,54.8,34.1,23.4,92,80,62,30.47,29.94,27,3,27,0.42
2012-11-14,40.4,31.1,25.6,27.4,23.3,20.9,85,73,54,30.60,30.47,14,2,14,0.00
2012-11-15,34.6,28.1,22.5,29.0,23.8,19.6,98,84,77,30.52,30.34,7,1,7,0.00
2012-11-16,40.1,28.8,21.0,32.1,24.9,18.8,93,86,72,30.49,30.33,9,1,9,0.00
2012-11-17,39.4,30.3,24.2,31.9,26.3,21.5,92,85,71,30.69,30.49,11,1,11,0.00
2012-11-18,40.4,28.8,20.7,31.8,24.7,18.5,94,85,64,30.72,30.58,8,2,9,0.01
2012-11-19,43.9,30.9,22.7,33.7,26.5,20.5,94,84,65,30.59,30.26,8,2,8,0.01
2012-11-20,42.4,32.5,25.8,36.6,29.5,23.5,93,89,78,30.26,30.14,6,1,6,0.01
2012-11-21,47.8,35.0,27.8,36.7,30.1,25.8,94,83,59,30.24,30.16,7,2,7,0.00
2012-11-22,49.4,37.2,27.1,35.7,29.5,24.3,90,75,56,30.23,30.03,12,2,12,0.01
2012-11-23,56.0,42.3,30.1,41.5,32.5,24.5,92,70,41,30.04,29.55,23,2,23,0.03
2012-11-24,42.5,33.8,27.0,35.5,23.9,16.8,81,67,55,29.66,29.52,34,7,34,0.00
2012-11-25,32.5,27.5,22.4,20.8,16.8,10.0,76,64,40,29.81,29.66,30,3,30,0.00
2012-11-26,34.8,28.7,25.3,28.4,23.6,20.6,89,81,68,30.21,29.80,16,1,16,0.01
2012-11-27,32.7,29.4,26.4,27.7,25.1,22.0,88,84,79,30.27,30.20,7,0,7,0.00
2012-11-28,35.4,31.4,27.6,27.3,25.1,20.3,88,78,63,30.23,30.07,14,2,14,0.00
2012-11-29,37.8,31.1,25.6,30.7,23.1,16.1,88,73,56,30.27,30.04,21,2,21,0.00
2012-11-30,33.8,25.1,16.2,30.6,21.0,10.9,88,84,78,30.57,30.27,8,0,9,0.00
2012-12-1,33.7,24.8,16.9,31.6,21.1,11.8,92,85,80,30.57,30.38,19,2,19,0.00
2012-12-2,44.7,40.1,32.2,42.0,37.8,30.1,94,92,85,30.38,29.92,19,3,19,0.11
2012-12-3,45.7,40.6,37.0,44.2,38.2,34.0,95,91,87,30.23,29.92,11,1,11,0.00
2012-12-4,52.7,45.3,36.6,50.0,43.1,34.0,96,92,89,30.20,29.81,24,4,24,0.05
2012-12-5,51.6,37.6,26.4,49.4,30.2,17.8,92,75,59,30.21,29.80,25,5,25,0.15
2012-12-6,30.5,23.8,16.6,21.7,18.0,13.4,89,78,68,30.38,30.19,12,1,12,0.00
2012-12-7,38.2,32.7,24.8,30.6,24.2,19.4,90,71,58,30.19,29.99,22,4,22,0.00
2012-12-8,40.2,35.2,28.5,38.5,33.4,26.2,95,93,90,30.00,29.77,13,1,13,0.04
2012-12-9,39.2,32.8,29.5,37.6,28.7,25.5,94,85,76,30.28,29.95,15,1,15,0.00
2012-12-10,44.6,38.0,29.7,43.3,36.2,26.9,99,93,88,30.05,29.46,23,2,23,0.61
2012-12-11,39.3,28.4,19.1,37.2,26.6,16.8,94,93,91,30.16,29.57,10,1,10,0.06
2012-12-12,37.1,25.0,17.0,29.8,21.8,14.8,94,88,72,30.38,30.16,9,1,12,0.01
2012-12-13,36.9,29.5,22.7,28.5,24.9,19.7,91,83,70,30.45,30.20,12,1,12,0.01
2012-12-14,41.9,32.9,23.1,30.9,26.5,20.9,92,78,64,30.21,30.06,24,2,24,0.00
2012-12-15,35.2,23.2,16.5,27.1,17.4,10.3,84,78,70,30.36,30.19,15,1,16,0.00
2012-12-16,30.2,26.0,16.8,28.2,22.6,12.8,92,87,77,30.27,29.99,9,1,9,0.00
2012-12-17,34.8,32.9,30.1,33.2,30.9,28.1,94,92,92,29.99,29.74,14,2,14,0.04
2012-12-18,38.9,35.7,33.9,37.6,34.3,32.3,95,95,94,29.74,29.43,7,1,7,0.50
2012-12-19,36.2,34.2,30.4,34.9,32.4,26.6,95,93,80,30.09,29.49,13,1,13,0.02
2012-12-20,32.8,29.2,23.3,29.6,26.0,21.0,93,88,83,30.22,29.85,8,1,8,0.00
2012-12-21,41.6,35.7,32.1,39.7,33.4,29.5,94,91,84,29.86,28.89,24,3,24,0.75
2012-12-22,35.0,27.8,22.8,31.0,21.3,14.4,89,76,65,29.67,29.05,22,4,22,0.00
2012-12-23,28.8,23.2,12.7,26.3,18.2,9.1,92,81,67,29.83,29.66,12,1,14,0.00
2012-12-24,28.7,20.9,14.5,24.7,17.4,11.9,92,87,69,30.07,29.83,8,0,8,0.01
2012-12-25,23.3,18.6,10.7,20.3,15.2,7.6,92,86,80,30.33,30.00,9,1,9,0.00
2012-12-26,21.5,18.2,14.0,17.7,14.9,10.9,89,86,82,30.38,29.97,7,0,7,0.00
2012-12-27,24.6,22.9,20.7,22.6,20.4,17.7,92,90,87,29.97,29.59,25,6,25,0.00
2012-12-28,28.5,22.2,15.2,23.5,18.6,12.6,90,86,80,30.03,29.80,15,2,15,0.01
2012-12-29,24.7,21.1,15.5,22.5,18.8,13.1,92,91,90,30.02,29.58,9,0,9,0.00
2012-12-30,25.2,17.6,13.8,19.5,13.1,6.9,91,82,69,30.08,29.59,18,1,18,0.01
2012-12-31,29.2,22.7,15.9,24.7,18.4,10.0,92,83,76,30.08,29.66,22,2,22,0.00
2013-1-1,30.7,19.0,1.4,26.0,9.7,-4.4,92,67,47,29.93,29.66,18,2,18,0.00